sat.trackr.live / text

‹ back to catalog

STARLINK-31952

NORAD 59867 · 2024-098K

PAYLOAD ACTIVE UNKNOWN

§ Identity

Operator
Country
US
Launch date
2024-05-24
Launch site
AFETR
Launch vehicle
Mass (kg)
RCS (m²)

Purposes: comms

External: N2YO · Heavens-Above · Gunter

§ Orbital elements

Epoch: 2026-05-25T04:27:59.305248Z

Period
94.27 min
Inclination
42.9995°
Eccentricity
0.0001115
Mean motion
15.27556389 rev/d
Perigee alt
482.4 km
Apogee alt
483.9 km
Semi-major
6,861.3 km
B*
-6.9042e-5
RAAN
206.1251°
Arg perigee
272.6838°
Mean anomaly
87.3886°
Rev number
11,354

§ Raw data

STARLINK-319521 59867U 24098K   26145.18610307 -.00002160  00000+0 -69042-4 0  99972 59867  42.9995 206.1251 0001115 272.6838  87.3886 15.27556389113541

JSON: /api/v1/satellites/59867 · /tle

For live sub-satellite position, see the globe view (requires WebGL).

§ Visibility from observer

Set your observer location to see the next 7 days of passes ≥ 10°. The values pass through the URL so the page stays shareable.

No JS? Fill the form by hand. The geolocation button needs JavaScript.